When you browse on this site, cookies collect data to enhance your experience and personalize the content and advertising you see.
Visit our Privacy Policy to learn more. By continuing to use the site, you agree to this use of cookies and data.
  • In Czech Republic
  • List of Countries
  • For 7 days
  • Water Temperature
  • Satellite Maps
  • Weather Map
  • Weather Widgets
  • user-avatar
    Login

    Hourly Weather San Luis

    Today, 19 January, Saturday

    Time Temperature Precipitation Wind Pressure Humidity
    00:00 +19°C° 0 mm 4 mps 702 mmHg 54%
    01:00 +19°C° 0 mm 4 mps 702 mmHg 54%
    02:00 +19°C° 0 mm 5 mps 702 mmHg 55%
    03:00 +17°C° 0 mm 5 mps 702 mmHg 56%
    04:00 +17°C° 0 mm 6 mps 702 mmHg 58%
    05:00 +17°C° 0 mm 6 mps 702 mmHg 60%
    06:00 +18°C° 0 mm 7 mps 702 mmHg 55%
    07:00 +21°C° 0 mm 7 mps 702 mmHg 50%
    08:00 +22°C° 0 mm 9 mps 702 mmHg 45%
    09:00 +24°C° 0 mm 8 mps 702 mmHg 41%
    10:00 +27°C° 0 mm 7 mps 702 mmHg 37%
    11:00 +28°C° 0 mm 7 mps 702 mmHg 32%
    12:00 +29°C° 0 mm 6 mps 702 mmHg 30%
    13:00 +32°C° 0 mm 6 mps 701 mmHg 27%
    14:00 +33°C° 0 mm 5 mps 701 mmHg 24%
    15:00 +33°C° 0 mm 5 mps 700 mmHg 24%
    16:00 +33°C° 0 mm 5 mps 700 mmHg 23%
    17:00 +33°C° 0 mm 5 mps 699 mmHg 23%
    18:00 +30°C° 0 mm 5 mps 699 mmHg 26%
    19:00 +28°C° 0 mm 5 mps 699 mmHg 30%
    20:00 +25°C° 0 mm 5 mps 698 mmHg 34%
    21:00 +24°C° 0 mm 6 mps 699 mmHg 38%
    22:00 +23°C° 0 mm 8 mps 699 mmHg 41%
    23:00 +22°C° 0 mm 9 mps 699 mmHg 44%

    Tomorrow, 20 January, Sunday

    Time Temperature Precipitation Wind Pressure Humidity
    00:00 +22°C° 0 mm 10 mps 699 mmHg 45%
    01:00 +21°C° 0 mm 10 mps 698 mmHg 46%
    02:00 +21°C° 0 mm 11 mps 698 mmHg 47%
    03:00 +19°C° 0 mm 10 mps 698 mmHg 50%
    04:00 +19°C° 0 mm 10 mps 698 mmHg 53%
    05:00 +19°C° 0 mm 9 mps 697 mmHg 56%
    06:00 +21°C° 0 mm 9 mps 698 mmHg 51%
    07:00 +22°C° 0 mm 9 mps 698 mmHg 45%
    08:00 +24°C° 0 mm 9 mps 698 mmHg 39%
    09:00 +27°C° 0 mm 9 mps 698 mmHg 34%
    10:00 +29°C° 0 mm 8 mps 698 mmHg 28%
    11:00 +32°C° 0 mm 7 mps 698 mmHg 22%
    12:00 +33°C° 0 mm 7 mps 698 mmHg 21%
    13:00 +34°C° 0 mm 6 mps 697 mmHg 19%
    14:00 +36°C° 0 mm 6 mps 697 mmHg 18%
    15:00 +35°C° 0 mm 6 mps 696 mmHg 19%
    16:00 +35°C° 0 mm 6 mps 695 mmHg 20%
    17:00 +35°C° 0 mm 6 mps 695 mmHg 21%
    18:00 +33°C° 0 mm 6 mps 695 mmHg 28%
    19:00 +30°C° 0 mm 5 mps 695 mmHg 34%
    20:00 +28°C° 0 mm 5 mps 694 mmHg 40%
    21:00 +27°C° 0 mm 7 mps 695 mmHg 42%
    22:00 +26°C° 0 mm 8 mps 695 mmHg 45%
    23:00 +26°C° 0 mm 9 mps 696 mmHg 47%

    Day after tomorrow, 21 January, Monday

    Time Temperature Precipitation Wind Pressure Humidity
    00:00 +24°C° 0 mm 9 mps 696 mmHg 49%
    01:00 +24°C° 0 mm 8 mps 695 mmHg 50%
    02:00 +23°C° 0 mm 8 mps 695 mmHg 51%
    03:00 +23°C° 0 mm 7 mps 695 mmHg 54%
    04:00 +22°C° 0 mm 6 mps 695 mmHg 57%
    05:00 +21°C° 0 mm 5 mps 695 mmHg 59%
    06:00 +23°C° 0 mm 4 mps 696 mmHg 54%
    07:00 +26°C° 0 mm 4 mps 697 mmHg 49%
    08:00 +28°C° 0 mm 3 mps 698 mmHg 43%
    09:00 +29°C° 0 mm 3 mps 699 mmHg 39%
    10:00 +31°C° 0 mm 3 mps 699 mmHg 35%
    11:00 +34°C° 0 mm 3 mps 699 mmHg 30%
    12:00 +34°C° 0 mm 3 mps 699 mmHg 28%
    13:00 +35°C° 0 mm 3 mps 698 mmHg 26%
    14:00 +36°C° 0 mm 3 mps 698 mmHg 24%
    15:00 +37°C° 0 mm 2 mps 697 mmHg 23%
    16:00 +37°C° 0 mm 2 mps 696 mmHg 23%
    17:00 +37°C° 0 mm 2 mps 696 mmHg 22%
    18:00 +35°C° 0 mm 3 mps 696 mmHg 26%
    19:00 +33°C° 0 mm 3 mps 695 mmHg 30%
    20:00 +30°C° 0 mm 4 mps 695 mmHg 35%
    21:00 +30°C° 0 mm 4 mps 695 mmHg 39%
    22:00 +29°C° 0 mm 4 mps 696 mmHg 42%
    23:00 +28°C° 0 mm 4 mps 696 mmHg 46%

    22 January, Tuesday

    Time Temperature Precipitation Wind Pressure Humidity
    00:00 +27°C° 0 mm 6 mps 695 mmHg 49%
    01:00 +27°C° 0 mm 7 mps 695 mmHg 51%
    02:00 +27°C° 0 mm 8 mps 694 mmHg 53%
    03:00 +27°C° 0 mm 8 mps 694 mmHg 55%
    04:00 +26°C° 0 mm 7 mps 694 mmHg 57%
    05:00 +26°C° 0 mm 7 mps 694 mmHg 59%
    06:00 +27°C° 0 mm 7 mps 694 mmHg 55%
    07:00 +29°C° 0 mm 8 mps 695 mmHg 51%
    08:00 +31°C° 0 mm 8 mps 695 mmHg 48%
    09:00 +33°C° 0 mm 7 mps 696 mmHg 43%
    10:00 +34°C° 0 mm 6 mps 696 mmHg 38%
    11:00 +36°C° 0 mm 4 mps 696 mmHg 33%
    12:00 +37°C° 0 mm 3 mps 696 mmHg 31%
    13:00 +38°C° 0 mm 2 mps 695 mmHg 28%
    14:00 +37°C° 0 mm 1 mps 695 mmHg 26%
    15:00 +39°C° 0 mm 2 mps 694 mmHg 25%
    16:00 +39°C° 0 mm 2 mps 694 mmHg 24%
    17:00 +39°C° 0 mm 2 mps 694 mmHg 23%
    18:00 +37°C° 0 mm 3 mps 694 mmHg 27%
    19:00 +36°C° 0 mm 3 mps 694 mmHg 31%
    20:00 +34°C° 0 mm 4 mps 695 mmHg 34%
    21:00 +32°C° 0.1 mm 5 mps 695 mmHg 41%
    22:00 +30°C° 0.1 mm 5 mps 696 mmHg 47%
    23:00 +28°C° 0.1 mm 6 mps 696 mmHg 54%

    23 January, Wednesday

    Time Temperature Precipitation Wind Pressure Humidity
    00:00 +27°C° 0.4 mm 5 mps 696 mmHg 59%
    01:00 +26°C° 0.4 mm 5 mps 696 mmHg 64%
    02:00 +26°C° 0.4 mm 5 mps 696 mmHg 69%
    03:00 +25°C° 0.5 mm 4 mps 696 mmHg 70%
    04:00 +25°C° 0.5 mm 4 mps 696 mmHg 72%
    05:00 +25°C° 0.5 mm 4 mps 696 mmHg 73%
    06:00 +27°C° 0.2 mm 3 mps 697 mmHg 67%
    07:00 +29°C° 0.2 mm 3 mps 698 mmHg 61%
    08:00 +30°C° 0.2 mm 2 mps 698 mmHg 55%
    09:00 +32°C° 0.2 mm 2 mps 698 mmHg 50%
    10:00 +34°C° 0.2 mm 2 mps 699 mmHg 46%
    11:00 +36°C° 0.2 mm 2 mps 699 mmHg 41%
    12:00 +36°C° 0 mm 2 mps 698 mmHg 40%
    13:00 +36°C° 0 mm 2 mps 697 mmHg 38%
    14:00 +37°C° 0 mm 2 mps 697 mmHg 37%
    15:00 +37°C° 0 mm 3 mps 696 mmHg 37%
    16:00 +37°C° 0 mm 4 mps 696 mmHg 37%
    17:00 +37°C° 0 mm 5 mps 695 mmHg 37%
    18:00 +36°C° 0 mm 5 mps 695 mmHg 41%
    19:00 +34°C° 0 mm 4 mps 695 mmHg 44%
    20:00 +33°C° 0 mm 4 mps 695 mmHg 48%
    21:00 +32°C° 0 mm 4 mps 695 mmHg 50%
    22:00 +32°C° 0 mm 4 mps 695 mmHg 52%
    23:00 +30°C° 0 mm 4 mps 695 mmHg 54%

    24 January, Thursday

    Time Temperature Precipitation Wind Pressure Humidity
    00:00 +30°C° 0 mm 5 mps 695 mmHg 55%
    01:00 +30°C° 0 mm 6 mps 694 mmHg 55%
    02:00 +29°C° 0 mm 7 mps 694 mmHg 56%
    03:00 +29°C° 0.1 mm 8 mps 694 mmHg 58%
    04:00 +29°C° 0.1 mm 8 mps 694 mmHg 60%
    05:00 +29°C° 0.1 mm 9 mps 693 mmHg 62%
    06:00 +31°C° 0 mm 9 mps 694 mmHg 58%
    07:00 +32°C° 0 mm 9 mps 694 mmHg 53%
    08:00 +34°C° 0 mm 9 mps 694 mmHg 48%
    09:00 +35°C° 0 mm 9 mps 694 mmHg 44%
    10:00 +38°C° 0 mm 9 mps 694 mmHg 40%
    11:00 +39°C° 0 mm 10 mps 694 mmHg 36%
    12:00 +40°C° 0 mm 10 mps 693 mmHg 34%
    13:00 +42°C° 0 mm 10 mps 693 mmHg 32%
    14:00 +43°C° 0 mm 10 mps 692 mmHg 30%
    15:00 +43°C° 0 mm 9 mps 692 mmHg 30%
    16:00 +43°C° 0 mm 9 mps 692 mmHg 30%
    17:00 +41°C° 0 mm 8 mps 691 mmHg 31%
    18:00 +39°C° 0 mm 7 mps 691 mmHg 34%
    19:00 +38°C° 0 mm 6 mps 691 mmHg 38%
    20:00 +35°C° 0 mm 5 mps 692 mmHg 42%
    21:00 +34°C° 0.1 mm 7 mps 692 mmHg 44%
    22:00 +34°C° 0.1 mm 8 mps 693 mmHg 46%
    23:00 +33°C° 0.1 mm 9 mps 693 mmHg 48%
    Show more